This demonstration page uses our WeatherBlox Daily Observations layout. Learn more.

Left ArrowRight Arrow

41.12389, -100.76542

Hourly Observations for March 22, 2020

Temp ( °F °C ) Dew Point ( °F °C ) Humidity (%) Winds ( mph kmh ) Pressure ( in mb ) Visibility ( mi km ) Precip ( " mm )
12:53 am 00:53 Clear 40 4.4 30 -1.1 68 68 S 8 13 30.10 1019 10 16 0.00 0.00
1:53 am 01:53 Clear 40 4.4 30 -1.1 68 68 S 8 13 30.07 1018 10 16 0.00 0.00
2:53 am 02:53 Clear 39 3.9 29 -1.7 67 67 S 9 15 30.06 1018 10 16 0.00 0.00
3:53 am 03:53 Clear 36 2.2 28 -2.2 73 73 Calm 30.06 1018 10 16 0.00 0.00
4:53 am 04:53 Clear 34 1.1 27 -2.8 76 76 SE 5 7 30.04 1017 10 16 0.00 0.00
5:53 am 05:53 Clear 33 0.6 27 -2.8 78 78 ESE 5 7 30.03 1017 10 16 0.00 0.00
6:53 am 06:53 Clear 31 -0.6 26 -3.3 82 82 ESE 6 9 30.03 1017 10 16 0.00 0.00
7:53 am 07:53 Sunny 28 -2.2 25 -3.9 88 88 ESE 6 9 30.05 1018 10 16 0.00 0.00
8:53 am 08:53 Sunny 34 1.1 28 -2.2 79 79 ESE 3 6 30.04 1017 10 16 0.00 0.00
9:53 am 09:53 Sunny 42 5.6 32 0 68 68 WSW 5 7 30.01 1016 10 16 0.00 0.00
10:53 am 10:53 Sunny 50 10 36 2.2 59 59 WSW 9 15 30.00 1016 10 16 0.00 0.00
11:53 am 11:53 Sunny 56 13.3 38 3.3 51 51 WSW 12 19 29.97 1015 10 16 0.00 0.00
12:53 pm 12:53 Sunny 59 15 37 2.8 44 44 WSW 18 30 29.93 1014 10 16 0.00 0.00
1:53 pm 13:53 Sunny 59 15 38 3.3 46 46 SSW 14 22 29.91 1013 10 16 0.00 0.00
2:46 pm 14:46 Mostly Cloudy with Thunderstorms 55 12.8 40 4.4 57 57 SSW 15 24 29.86 1011 10 16 0.00 0.00
2:53 pm 14:53 Cloudy with Thunderstorms 55 12.8 42 5.6 62 62 S 15 24 29.90 1012 10 16 0.00 0.00
3:17 pm 15:17 Cloudy 57 13.9 41 5 55 55 WSW 7 11 29.84 1011 10 16 0.01 0.25
3:30 pm 15:30 Cloudy with Nearby Thunderstorms 56 13.3 40 4.4 55 55 SW 8 13 29.84 1010 10 16 0.01 0.25
3:45 pm 15:45 Cloudy 56 13.3 40 4.4 55 55 SW 15 24 29.85 1011 10 16 0.01 0.25
3:53 pm 15:53 Cloudy with Nearby Thunderstorms 53 11.7 41 5 64 64 SSW 14 22 29.90 1012 10 16 0.01 0.25
4:08 pm 16:08 Cloudy 55 12.8 41 5 59 59 SSW 12 19 29.84 1011 10 16 0.00 0.00
4:53 pm 16:53 Partly Cloudy 57 13.9 41 5 55 55 SSW 18 30 29.88 1012 10 16 0.00 0.00
5:53 pm 17:53 Cloudy 55 12.8 41 5 59 59 S 13 20 29.91 1013 10 16 0.00 0.00
6:53 pm 18:53 Cloudy 54 12.2 41 5 62 62 SSW 13 20 29.92 1013 10 16 0.00 0.00
7:53 pm 19:53 Cloudy with Light Rain 51 10.6 41 5 69 69 SSW 15 24 29.94 1014 10 16 0.00 0.00
8:53 pm 20:53 Mostly Clear 48 8.9 39 3.9 71 71 SW 10 17 29.96 1015 10 16 0.00 0.00
9:53 pm 21:53 Mostly Clear 45 7.2 38 3.3 77 77 SW 12 19 29.98 1015 10 16 0.00 0.00
10:53 pm 22:53 Clear 39 3.9 35 1.7 86 86 N 5 7 30.01 1016 10 16 0.00 0.00
11:53 pm 23:53 Clear 41 5 34 1.1 76 76 NNE 7 11 30.01 1016 10 16 0.00 0.00

Powered by AerisWeather